Temp
58 58 58 59 59 59 59 59 59 58 59 59 59 59 59 59 59 58 58 59 55 54 53 54 55 53 50 51 51 51 50 48 48 48 50 51 51 50 50 51 52 51 53
58 58 58 58 59 59 59 59 59 59 60 59 59 59 59 59 59 58 58 55 52 52 54 54 55 57 57 54 52 51 52 49 47 48 50 49 48 50 49 48 48 50 50
58 58 59 58 58 58 59 59 59 59 60 60 60 59 58 58 58 58 58 56 54 52 53 56 56 56 56 57 52 51 53 54 50 50 48 50 49 49 47 47 47 47 49
58 58 58 58 58 58 59 59 59 60 59 59 59 58 58 58 58 58 58 57 56 51 55 55 56 55 55 55 50 52 53 51 50 48 48 48 48 48 48 45 43 46 47
57 58 58 59 59 59 59 59 59 59 59 59 58 59 58 58 58 56 57 56 53 51 53 56 56 53 51 51 51 53 53 50 49 48 48 47 47 47 46 45 44 45 46
57 57 59 59 59 58 58 58 58 58 58 58 57 57 56 58 47 48 52 54 50 49 50 54 56 54 52 50 49 50 51 50 47 49 48 47 48 46 46 45 45 46 43
57 58 58 59 58 57 57 57 56 55 55 54 55 55 55 56 46 46 48 54 50 49 47 49 55 55 53 50 51 51 52 51 50 49 49 49 48 48 48 47 47 48 44
56 57 58 57 57 56 56 55 54 54 53 52 52 51 49 51 46 44 46 54 49 47 50 54 51 51 53 47 47 50 50 52 50 50 50 50 50 51 51 49 48 47 48
56 56 56 55 56 55 54 52 52 52 52 52 53 52 49 51 45 44 47 54 53 54 56 53 51 48 45 43 49 47 47 47 48 47 47 45 45 46 49 53 49 49 45
56 55 55 55 54 52 50 49 50 52 51 51 49 48 47 50 44 43 46 54 53 54 54 51 47 44 42 44 48 47 45 45 47 47 47 47 49 50 49 52 50 46 44
56 54 52 51 48 45 46 46 49 50 48 47 45 46 47 47 45 43 44 53 49 50 46 45 47 43 42 42 44 46 45 47 46 45 45 46 48 51 47 47 47 49 46
56 52 53 48 48 49 48 47 47 45 44 44 45 45 47 47 45 44 43 43 45 45 44 45 46 42 41 42 44 42 43 46 48 49 48 46 45 47 48 51 50 49 51
51 50 49 48 48 47 48 47 44 45 43 42 42 43 44 47 50 45 43 43 45 46 47 45 43 42 43 45 43 43 46 52 52 48 45 44 47 47 48 49 49 48 50
50 50 48 47 48 48 47 46 45 43 41 42 42 42 44 45 47 49 47 47 46 47 48 47 46 45 45 46 49 51 53 50 47 45 44 46 48 47 46 46 48 53 53
47 47 48 48 46 45 45 45 44 44 41 41 42 44 44 45 45 41 41 45 46 45 48 50 50 50 49 49 49 49 50 50 47 46 45 45 46 46 47 53 56 57 56
48 47 46 45 45 44 45 46 43 41 40 39 38 42 46 41 40 40 40 40 41 42 50 48 47 46 45 45 45 46 46 46 46 45 45 50 52 53 56 58 59 58 56
45 45 45 45 45 45 45 44 43 46 42 40 39 39 39 39 40 40 41 41 41 45 47 46 45 45 45 46 45 47 51 53 52 56 57 56 57 57 58 57 57 59 57
48 44 46 46 46 45 45 45 46 45 46 47 44 42 40 40 40 41 41 45 47 47 48 47 46 46 45 46 48 54 57 59 60 60 59 59 59 60 59 59 60 60 61
48 48 47 47 47 46 47 47 47 46 45 45 47 46 45 42 41 42 43 48 47 46 47 48 48 52 55 57 57 57 57 58 58 60 59 60 60 63 61 62 61 47 51
49 43 44 48 48 48 49 48 47 45 45 44 43 43 45 47 47 50 52 52 49 49 49 52 56 58 60 60 60 60 60 60 61 61 60 60 61 63 63 61 62 65 66
51 49 44 54 50 49 49 47 46 46 45 45 45 42 35 47 51 54 57 58 59 60 61 62 64 64 64 63 64 64 64 64 63 63 61 62 62 63 65 65 66 66 66
52 50 52 53 54 51 48 47 48 47 46 46 47 47 38 57 59 59 59 60 62 62 64 65 66 66 66 66 65 65 65 65 65 64 65 66 66 67 66 66 66 66 66
53 51 54 54 52 47 50 50 55 57 57 54 52 55 59 60 61 61 60 61 61 62 63 64 65 66 66 65 65 66 66 64 64 65 66 67 66 66 66 65 65 65 64
53 54 52 58 57 58 56 54 58 51 59 58 58 59 60 61 60 59 60 61 62 62 62 62 62 62 63 65 67 67 63 62 66 67 67 66 66 64 66 65 65 64 64
55 52 55 54 54 57 59 59 58 59 55 52 52 55 55 58 60 60 60 62 62 62 61 61 62 62 62 60 61 61 41 36 56 43 68 67 65 64 65 65 65 65 64
53 54 57 56 56 59 59 56 51 52 54 60 61 60 61 61 61 60 61 61 62 61 61 61 60 60 61 59 52 38 36 37 51 37 66 67 66 65 66 64 64 64 63
MSLP
1022.81 1022.56 1022.34 1022.02 1021.83 1021.61 1021.26 1020.84 1020.48 1020.11 1019.75 1019.43 1019.14 1018.91 1018.75 1018.56 1018.50 1018.22 1017.88 1017.68 1017.62 1017.46 1017.36 1016.79 1016.32 1016.03 1015.62 1015.34 1014.92 1014.32 1013.87 1013.51 1012.80 1012.58 1012.55 1012.68 1012.60 1012.39 1012.61 1012.49 1012.23 1011.99 1011.88
1022.84 1022.53 1022.16 1021.84 1021.63 1021.22 1020.86 1020.54 1020.25 1019.79 1019.36 1019.11 1018.91 1018.78 1018.53 1018.34 1018.36 1018.11 1017.73 1017.77 1017.66 1017.44 1017.07 1016.68 1016.14 1015.68 1015.13 1014.93 1014.67 1014.21 1013.63 1013.40 1013.06 1012.74 1012.97 1013.14 1013.17 1013.11 1013.32 1013.38 1013.31 1013.07 1012.76
1022.73 1022.30 1021.94 1021.67 1021.39 1020.99 1020.61 1020.23 1019.88 1019.50 1019.11 1018.83 1018.72 1018.53 1018.36 1018.36 1018.25 1018.03 1017.81 1017.69 1017.67 1017.52 1017.15 1016.63 1016.17 1015.68 1014.99 1014.55 1014.63 1014.13 1013.50 1012.96 1012.79 1012.64 1013.10 1013.36 1013.66 1013.70 1014.02 1014.05 1014.06 1014.01 1013.58
1022.59 1022.14 1021.72 1021.39 1021.09 1020.77 1020.39 1019.89 1019.64 1019.36 1019.04 1018.83 1018.68 1018.56 1018.53 1018.40 1018.13 1017.90 1017.57 1017.24 1017.17 1017.47 1017.14 1016.76 1016.23 1015.66 1015.16 1014.71 1014.77 1014.05 1013.58 1013.19 1012.85 1012.82 1013.21 1013.57 1013.79 1014.20 1014.34 1014.57 1014.55 1014.43 1014.28
1022.35 1021.88 1021.52 1021.23 1020.84 1020.48 1020.19 1019.91 1019.65 1019.29 1019.08 1018.94 1018.77 1018.61 1018.56 1018.38 1018.36 1018.11 1017.51 1017.04 1017.20 1017.37 1017.09 1016.60 1016.18 1015.92 1015.52 1015.19 1014.84 1013.97 1013.67 1013.33 1013.08 1013.18 1013.40 1013.73 1013.96 1014.14 1014.38 1014.83 1014.90 1014.95 1015.03
1022.21 1021.77 1021.43 1020.99 1020.69 1020.50 1020.35 1020.03 1019.59 1019.30 1019.19 1018.95 1018.86 1018.75 1018.64 1018.45 1018.78 1018.42 1017.74 1017.20 1017.37 1017.41 1017.07 1016.47 1016.06 1015.54 1015.26 1014.98 1014.93 1014.40 1014.10 1013.66 1013.45 1013.33 1013.59 1013.93 1014.17 1014.48 1014.68 1014.75 1014.74 1014.77 1015.10
1022.14 1021.67 1021.14 1020.97 1020.58 1020.52 1020.48 1020.15 1019.94 1019.76 1019.43 1019.17 1018.93 1018.83 1018.71 1018.60 1018.80 1018.36 1017.80 1017.23 1017.40 1017.38 1017.19 1016.72 1015.89 1015.51 1015.14 1014.83 1014.44 1014.26 1013.86 1013.79 1013.75 1013.65 1013.77 1014.06 1014.22 1014.45 1014.70 1014.82 1014.92 1015.04 1015.54
1021.98 1021.56 1021.10 1020.91 1020.68 1020.71 1020.49 1020.46 1020.35 1020.08 1019.78 1019.59 1019.29 1019.17 1019.10 1018.90 1018.85 1018.38 1017.70 1017.10 1017.35 1017.31 1016.98 1016.39 1016.11 1015.66 1015.16 1015.00 1014.58 1014.06 1013.99 1013.80 1013.74 1013.72 1013.87 1014.23 1014.40 1014.66 1014.73 1014.98 1015.28 1015.61 1015.85
1021.91 1021.63 1021.35 1021.21 1020.97 1020.80 1020.73 1020.81 1020.69 1020.39 1020.08 1019.75 1019.45 1019.25 1019.16 1018.85 1018.88 1018.41 1017.76 1017.13 1017.01 1016.76 1016.57 1016.52 1016.29 1015.85 1015.41 1014.84 1014.50 1014.64 1014.63 1014.60 1014.41 1014.31 1014.51 1014.80 1014.92 1015.00 1015.01 1015.07 1015.23 1015.35 1015.88
1021.81 1021.72 1021.51 1021.39 1021.26 1021.28 1021.42 1021.32 1021.05 1020.62 1020.17 1019.87 1019.69 1019.55 1019.35 1018.89 1018.88 1018.43 1017.95 1017.37 1017.10 1016.76 1016.63 1016.70 1016.42 1016.07 1015.48 1015.15 1015.01 1015.06 1015.10 1015.27 1015.08 1015.08 1015.28 1015.45 1015.39 1015.51 1015.47 1015.34 1015.43 1015.48 1015.84
1021.90 1021.95 1021.93 1021.99 1022.01 1022.04 1021.84 1021.72 1021.20 1020.67 1020.41 1020.14 1019.99 1019.72 1019.47 1019.31 1019.08 1018.83 1018.43 1017.84 1017.75 1017.33 1017.26 1017.10 1016.74 1016.38 1016.08 1015.84 1015.74 1015.70 1015.83 1015.86 1015.82 1015.84 1016.05 1016.16 1016.13 1016.04 1016.25 1016.20 1016.02 1015.84 1015.94
1021.95 1022.19 1022.10 1022.38 1022.32 1022.13 1021.86 1021.71 1021.39 1021.12 1020.76 1020.34 1020.07 1019.90 1019.67 1019.54 1019.40 1019.14 1018.84 1018.56 1018.30 1017.96 1017.68 1017.48 1017.35 1017.00 1016.78 1016.65 1016.60 1016.60 1016.52 1016.40 1016.36 1016.27 1016.52 1016.77 1016.86 1016.87 1016.91 1016.53 1016.61 1016.58 1016.48
1022.53 1022.58 1022.60 1022.56 1022.48 1022.35 1021.96 1021.72 1021.62 1021.37 1021.03 1020.69 1020.53 1020.27 1020.07 1019.84 1019.48 1019.37 1019.13 1018.82 1018.49 1018.20 1018.00 1017.93 1017.75 1017.54 1017.41 1017.37 1017.33 1017.19 1016.96 1016.74 1016.72 1016.93 1017.36 1017.62 1017.72 1017.77 1017.62 1017.38 1017.27 1017.19 1017.08
1023.03 1022.94 1022.90 1022.76 1022.53 1022.32 1022.21 1022.10 1021.89 1021.71 1021.51 1021.26 1021.03 1020.74 1020.52 1020.33 1020.05 1019.71 1019.47 1019.13 1018.83 1018.56 1018.41 1018.30 1018.16 1018.03 1017.93 1017.91 1017.68 1017.58 1017.53 1017.68 1017.81 1017.89 1018.10 1018.30 1018.29 1018.17 1018.07 1017.94 1017.75 1017.47 1017.27
1023.54 1023.38 1023.13 1022.93 1022.77 1022.59 1022.52 1022.39 1022.24 1022.13 1022.05 1021.78 1021.67 1021.38 1021.11 1020.83 1020.77 1020.47 1020.00 1019.62 1019.38 1019.16 1018.86 1018.60 1018.40 1018.27 1018.31 1018.36 1018.40 1018.44 1018.33 1018.40 1018.45 1018.64 1018.68 1018.78 1018.70 1018.55 1018.36 1018.13 1017.85 1017.65 1017.34
1023.79 1023.72 1023.61 1023.33 1023.11 1022.95 1022.72 1022.53 1022.47 1022.43 1022.37 1022.28 1022.20 1021.93 1021.70 1021.53 1021.23 1020.88 1020.50 1020.12 1019.82 1019.51 1019.15 1019.04 1019.16 1019.22 1019.18 1019.24 1019.20 1019.17 1019.17 1019.12 1019.19 1019.24 1019.30 1019.02 1018.74 1018.57 1018.20 1017.97 1017.88 1017.64 1017.61
1024.41 1024.14 1023.93 1023.66 1023.40 1023.21 1023.03 1022.92 1022.83 1022.82 1022.79 1022.70 1022.56 1022.38 1022.24 1021.85 1021.64 1021.36 1021.03 1020.71 1020.34 1019.88 1019.72 1019.95 1020.02 1020.07 1020.12 1020.01 1019.96 1019.75 1019.51 1019.45 1019.46 1019.08 1018.91 1018.84 1018.60 1018.51 1018.15 1018.10 1017.98 1017.79 1017.75
1024.55 1024.43 1024.15 1023.93 1023.77 1023.65 1023.53 1023.40 1023.27 1023.18 1023.07 1023.02 1023.07 1022.94 1022.70 1022.31 1022.04 1021.62 1021.30 1020.97 1020.78 1020.71 1020.61 1020.59 1020.62 1020.65 1020.64 1020.45 1020.20 1019.70 1019.49 1019.32 1019.21 1019.10 1019.04 1018.91 1018.70 1018.36 1018.20 1018.09 1017.94 1017.70 1017.48
1024.88 1024.65 1024.56 1024.44 1024.29 1024.14 1024.00 1023.90 1023.84 1023.82 1023.75 1023.69 1023.51 1023.21 1022.88 1022.59 1022.29 1022.13 1021.66 1021.39 1021.37 1021.32 1021.26 1021.09 1021.15 1020.86 1020.51 1020.30 1020.22 1020.22 1020.12 1020.02 1019.82 1019.58 1019.42 1019.19 1018.99 1018.47 1018.35 1018.20 1018.07 1018.04 1017.78
1025.34 1025.29 1025.07 1024.92 1024.77 1024.55 1024.39 1024.35 1024.37 1024.33 1024.25 1024.19 1024.08 1023.89 1023.53 1022.92 1022.68 1022.37 1022.01 1021.80 1021.80 1021.82 1021.80 1021.46 1021.22 1020.98 1020.77 1020.64 1020.56 1020.46 1020.28 1020.11 1019.87 1019.59 1019.44 1019.20 1018.89 1018.50 1018.17 1018.15 1017.90 1017.46 1017.28
1025.78 1025.65 1025.42 1025.10 1025.13 1025.10 1025.04 1025.04 1025.02 1024.85 1024.79 1024.68 1024.71 1024.53 1024.04 1023.58 1023.19 1022.71 1022.33 1022.16 1021.90 1021.70 1021.46 1021.26 1021.09 1021.04 1020.95 1020.89 1020.67 1020.51 1020.25 1020.06 1019.91 1019.68 1019.54 1019.23 1018.96 1018.45 1018.24 1018.02 1017.76 1017.56 1017.48
1026.18 1026.03 1025.77 1025.58 1025.52 1025.63 1025.72 1025.66 1025.51 1025.36 1025.17 1025.13 1025.14 1024.78 1024.30 1023.68 1023.33 1023.12 1022.94 1022.75 1022.46 1022.32 1022.00 1021.64 1021.46 1021.32 1021.26 1021.05 1020.91 1020.60 1020.34 1020.14 1020.02 1019.85 1019.45 1019.08 1018.77 1018.46 1018.23 1017.98 1017.73 1017.65 1017.67
1026.45 1026.29 1025.98 1026.11 1026.21 1026.26 1026.11 1025.97 1025.53 1025.25 1025.12 1025.22 1025.14 1024.76 1024.35 1024.10 1023.91 1023.78 1023.70 1023.53 1023.33 1023.18 1023.03 1022.73 1022.22 1021.99 1021.96 1021.78 1021.51 1021.12 1020.80 1020.70 1020.56 1020.33 1019.78 1019.34 1019.10 1018.89 1018.66 1018.43 1018.26 1018.17 1018.32
1026.82 1026.62 1026.65 1026.38 1026.28 1026.07 1026.25 1026.18 1025.96 1025.98 1025.48 1025.51 1025.50 1025.33 1025.11 1024.95 1024.85 1024.82 1024.65 1024.51 1024.28 1024.15 1023.98 1023.77 1023.60 1023.35 1022.94 1022.40 1022.09 1021.86 1021.87 1021.67 1021.03 1020.68 1020.27 1020.00 1019.78 1019.52 1019.30 1019.10 1018.96 1018.95 1018.90
1027.24 1027.28 1027.17 1027.18 1027.01 1026.81 1026.60 1026.67 1026.63 1026.57 1026.76 1026.89 1026.73 1026.47 1026.42 1026.10 1025.81 1025.69 1025.56 1025.31 1025.17 1024.95 1024.95 1024.77 1024.54 1024.21 1023.95 1023.73 1023.42 1023.14 1023.31 1022.82 1022.10 1021.80 1020.92 1020.70 1020.54 1020.34 1020.14 1019.95 1019.84 1019.69 1019.64
1027.72 1027.71 1027.60 1027.61 1027.58 1027.41 1027.40 1027.54 1027.83 1027.78 1027.60 1027.18 1027.13 1027.05 1026.93 1026.80 1026.73 1026.57 1026.44 1026.21 1025.95 1025.91 1025.81 1025.72 1025.58 1025.29 1024.88 1024.82 1024.88 1024.55 1024.01 1023.55 1022.90 1022.51 1021.62 1021.42 1021.23 1021.07 1020.90 1020.76 1020.62 1020.38 1020.35
Wind_Speed
7 7 8 8 8 8 8 8 8 9 8 8 7 7 6 6 6 5 5 5 7 6 7 8 9 8 5 6 6 5 4 4 5 4 4 5 8 10 9 9 11 9 9
7 8 8 8 8 8 8 9 8 8 8 7 7 6 6 5 6 6 6 5 5 7 8 9 9 7 10 6 5 8 7 4 3 5 2 3 5 7 9 9 7 7 8
8 8 7 7 7 8 8 7 7 7 7 6 6 6 6 6 7 6 6 5 5 5 6 8 10 11 10 9 9 8 8 5 4 3 3 2 2 4 7 7 5 6 6
9 8 7 7 7 8 7 7 7 7 7 6 5 5 5 6 6 7 7 7 4 3 6 7 9 10 11 10 7 7 8 7 4 4 4 3 1 5 4 3 5 6 7
8 8 8 8 7 7 8 8 8 7 6 5 4 4 5 5 7 10 9 7 3 3 5 7 8 11 13 11 6 7 8 5 3 4 3 3 2 2 3 2 4 5 8
8 8 8 8 8 8 8 8 8 8 6 5 5 6 6 4 11 12 9 4 4 3 5 8 9 9 11 12 10 10 9 5 3 2 2 4 2 5 3 1 1 2 3
8 9 8 8 7 6 8 9 9 9 8 7 7 7 7 7 11 12 12 3 3 3 5 7 8 8 10 9 10 7 5 4 2 2 5 3 2 2 3 5 6 7 4
9 9 9 8 6 7 8 9 9 7 8 8 8 7 6 6 11 12 13 4 2 2 5 8 9 10 10 10 7 5 6 7 3 1 5 5 5 5 3 4 7 6 6
9 11 9 8 6 7 8 9 8 8 7 7 6 8 8 8 10 12 10 5 4 6 6 8 9 10 12 11 4 5 7 7 14 19 16 13 10 8 5 4 3 3 4
9 8 7 5 6 8 8 7 7 7 6 6 7 6 6 9 10 12 7 4 6 6 6 9 10 10 10 9 6 6 7 6 7 9 7 9 9 10 11 6 3 4 3
8 6 5 6 6 5 4 5 8 8 7 7 6 5 6 8 8 10 12 7 6 6 6 6 6 11 11 12 11 6 6 5 9 8 7 6 8 9 7 6 7 4 4
7 6 6 6 5 6 6 6 7 7 7 6 5 5 6 7 9 9 9 9 8 4 4 4 5 12 13 12 9 11 10 7 5 7 8 8 7 8 7 8 10 8 9
8 6 7 6 5 5 6 7 5 8 7 6 5 5 5 6 6 8 8 9 9 4 4 7 9 9 9 11 13 11 6 8 8 9 8 8 8 6 5 7 8 7 9
7 8 6 6 7 6 4 4 4 5 5 5 5 5 5 6 7 7 5 5 7 6 6 6 6 7 10 7 7 9 10 9 7 7 7 6 6 6 5 3 5 7 9
6 6 6 6 6 5 5 4 5 4 3 2 4 5 5 7 6 6 5 4 4 5 4 6 7 8 9 9 9 9 7 8 7 6 6 5 5 3 3 5 6 7 8
8 7 6 5 4 4 5 4 4 8 9 7 6 5 5 5 6 8 9 10 10 9 8 8 9 8 8 7 7 7 7 8 6 5 4 5 6 5 5 5 6 6 6
5 6 4 5 4 5 5 5 5 6 11 9 10 10 8 5 9 9 10 9 12 7 9 7 6 7 6 6 6 7 8 8 6 6 6 6 5 5 4 5 4 4 5
6 6 4 4 5 5 5 6 6 6 6 7 10 9 10 10 11 12 11 6 7 8 7 7 7 6 6 5 4 7 7 7 8 7 6 6 5 5 5 5 4 5 5
7 5 5 5 5 6 6 6 6 6 6 6 6 7 9 11 10 10 9 8 7 7 6 8 5 6 7 7 7 7 7 6 6 5 5 5 4 4 4 3 3 2 2
6 9 6 5 5 6 7 8 6 6 6 5 6 5 5 4 7 8 8 7 6 6 6 7 7 7 7 6 5 4 4 4 4 5 5 5 4 3 3 3 3 3 2
6 5 7 8 8 7 7 6 5 5 6 6 6 5 6 6 8 9 9 9 9 9 9 8 7 7 5 5 4 4 5 5 5 5 5 5 5 5 4 3 3 3 4
5 4 6 8 7 8 6 5 6 5 5 5 4 5 5 7 8 9 9 9 8 8 7 7 7 6 6 6 6 6 6 7 7 7 6 7 7 7 7 5 5 5 5
4 5 7 9 8 6 6 5 7 8 9 8 6 7 9 9 9 10 9 9 8 8 8 8 8 8 8 7 7 7 7 7 7 7 7 8 8 8 8 7 8 8 8
6 8 8 9 7 8 8 7 8 9 9 10 10 10 10 10 10 11 10 9 9 10 10 9 10 13 11 10 9 9 8 7 6 7 9 9 9 8 8 8 8 9 8
7 5 7 7 7 7 8 9 9 10 10 8 8 8 8 8 9 10 9 9 10 10 12 11 10 13 15 17 15 14 9 8 10 7 7 9 10 11 10 8 8 9 9
5 6 6 5 6 7 7 8 6 6 6 8 9 9 10 10 10 10 10 11 10 11 12 10 13 16 17 14 14 12 11 10 10 8 8 9 10 9 8 10 11 8 9
Wind_Direction
335 329 316 314 314 306 300 303 303 299 297 295 297 299 302 306 323 313 341 354 358 5 2 352 349 336 334 340 334 324 328 326 302 65 45 57 68 74 54 42 36 34 45
326 316 315 317 315 313 313 312 305 300 307 303 303 300 304 318 331 321 322 341 345 347 352 346 344 334 339 352 342 337 329 321 285 142 80 71 62 69 66 54 36 35 38
322 321 324 325 321 321 319 314 307 307 309 314 323 323 339 343 330 328 316 318 334 344 340 352 342 338 338 342 346 336 327 337 302 126 125 83 87 79 70 52 38 35 42
324 315 317 328 325 323 321 321 330 335 336 349 3 17 357 340 346 336 317 305 308 355 334 343 340 336 336 335 328 316 329 340 328 108 100 111 97 85 82 71 59 41 47
317 320 330 325 315 326 341 345 346 353 3 6 7 358 1 0 11 340 332 309 347 354 331 335 339 330 335 331 320 321 328 347 354 129 119 118 110 130 91 101 91 72 52
328 327 325 319 337 347 347 344 345 357 353 335 343 344 355 358 358 343 345 3 86 22 338 332 333 331 341 333 331 313 320 326 337 136 92 122 100 105 133 130 168 175 87
335 338 329 329 332 353 345 347 357 359 355 343 346 352 345 348 2 344 347 27 89 35 327 321 334 342 329 337 328 329 305 310 293 345 135 125 129 110 123 72 71 87 85
329 331 335 326 342 356 358 5 6 358 0 350 350 359 359 354 356 344 335 14 123 280 308 339 339 333 341 332 322 18 37 24 358 143 110 101 106 127 93 112 104 103 99
347 341 338 335 350 3 14 8 356 347 347 344 352 4 3 353 3 342 339 30 10 356 356 4 347 337 335 326 70 93 76 64 67 75 75 71 64 73 98 136 109 111 92
350 342 344 12 17 20 19 4 349 354 344 355 353 358 351 1 10 352 350 24 19 8 18 5 352 354 359 43 68 76 71 45 68 67 54 51 60 64 48 47 1 93 112
338 3 19 24 33 27 3 355 351 355 359 0 358 357 4 24 12 12 14 33 19 13 2 347 1 20 37 54 58 62 63 74 67 71 66 58 56 55 42 35 40 42 76
13 35 26 33 21 11 357 8 7 356 352 352 358 12 22 20 22 31 24 26 15 4 353 356 30 48 53 52 62 61 55 64 75 78 70 59 54 55 53 62 63 62 60
27 28 29 16 4 356 4 9 5 1 2 10 19 25 24 21 26 19 21 17 17 21 25 53 51 48 59 60 53 50 58 73 75 74 70 64 62 59 57 62 58 54 67
20 28 21 17 5 15 8 5 358 0 354 15 21 27 30 32 25 19 12 1 9 28 37 46 49 73 71 69 64 59 64 65 67 72 76 77 68 57 59 22 62 71 74
20 16 16 19 17 14 22 11 5 25 6 357 14 25 27 38 20 349 5 20 26 20 51 62 61 60 58 56 55 55 64 70 66 67 75 73 75 68 53 65 75 89 84
33 33 22 8 4 6 14 20 29 28 43 55 38 29 57 32 15 22 29 32 23 9 66 58 53 49 48 47 52 59 57 59 58 67 66 80 82 77 78 77 75 68 79
21 9 3 6 15 17 20 27 29 51 63 47 39 35 33 22 25 30 26 39 33 32 57 56 56 52 52 52 57 73 81 85 115 93 81 81 84 81 83 81 85 86 87
17 14 22 25 24 23 29 33 41 38 50 51 51 43 31 33 35 28 14 47 51 47 59 63 63 61 58 66 75 82 85 88 83 79 74 70 68 70 83 85 88 88 88
32 33 32 32 34 23 34 46 46 44 41 36 24 24 11 12 26 29 26 57 59 58 57 66 59 73 75 71 71 70 65 60 51 56 51 44 41 37 69 69 86 13 307
48 33 37 40 39 35 47 53 49 48 44 37 31 9 350 26 43 52 56 62 60 58 59 70 72 73 79 82 84 83 79 62 49 37 28 13 6 346 12 345 339 323 25
47 46 44 62 59 51 51 48 44 42 44 39 36 13 355 45 51 51 57 58 62 64 70 75 81 80 78 72 62 49 40 37 29 27 20 18 8 5 4 13 10 351 339
57 49 49 64 69 65 49 41 49 49 43 44 21 8 358 63 57 58 57 53 55 56 50 54 57 47 36 25 17 18 20 22 21 16 17 22 22 26 25 20 25 25 23
24 28 69 79 79 75 67 54 58 62 60 53 46 52 54 55 54 53 52 49 47 45 42 38 33 36 28 23 17 7 9 15 13 9 14 22 28 16 26 33 35 43 44
47 69 78 82 76 77 66 59 69 57 54 53 47 48 51 54 54 52 46 40 44 44 40 39 39 36 29 30 30 33 29 18 23 34 25 27 29 28 36 43 48 48 57
76 72 72 61 65 69 73 62 57 58 54 45 46 55 57 50 50 48 43 44 46 46 45 41 34 35 38 36 34 33 21 2 26 342 34 42 45 45 43 46 44 48 41
54 79 79 69 67 67 70 73 54 54 55 57 54 51 50 50 49 46 43 44 45 46 44 39 35 35 34 32 24 16 13 14 21 354 37 46 43 39 50 50 50 52 51